This is the latest recevied weather packets stored in our database for station/object SP1BMW-13. If no packets are shown the sender has not sent any weather packets the latest 10 day(s).
| Time | Temp. | Humidity | Pressure | Rain* | Wind** | Luminosity | Snow |
|---|---|---|---|---|---|---|---|
| 1787990781 | 21.11° C | 65% | 1009.4 hPa | 0 mm | 0.89 m/s, 247° | 393 W/m² | - |
| 1787990722 | 21.11° C | 65% | 1009.5 hPa | 0 mm | 0.89 m/s, 295° | 378 W/m² | - |
| 1787990661 | 21.11° C | 66% | 1009.4 hPa | 0 mm | 0.89 m/s, 262° | 373 W/m² | - |
| 1787990601 | 21.11° C | 65% | 1009.4 hPa | 0 mm | 0.45 m/s, 214° | 370 W/m² | - |
| 1787990540 | 21.11° C | 65% | 1009.6 hPa | 0 mm | 1.79 m/s, 282° | 366 W/m² | - |
| 1787990480 | 21.11° C | 65% | 1009.5 hPa | 0 mm | 1.79 m/s, 325° | 365 W/m² | - |
| 1787990420 | 21.11° C | 65% | 1009.4 hPa | 0 mm | 1.34 m/s, 295° | 362 W/m² | - |
| 1787990361 | 21.11° C | 65% | 1009.7 hPa | 0 mm | 1.34 m/s, 217° | 358 W/m² | - |
| 1787990300 | 20.56° C | 65% | 1009.4 hPa | 0 mm | 1.34 m/s, 232° | 356 W/m² | - |
| 1787990240 | 20.56° C | 67% | 1009.4 hPa | 0 mm | 0.45 m/s, 267° | 353 W/m² | - |
| 1787990181 | 20.56° C | 66% | 1009.6 hPa | 0 mm | 0.45 m/s, 224° | 351 W/m² | - |
| 1787990121 | 20.56° C | 66% | 1009.4 hPa | 0 mm | 0.89 m/s, 314° | 346 W/m² | - |
| 1787990060 | 20.56° C | 66% | 1009.4 hPa | 0 mm | 1.79 m/s, 240° | 346 W/m² | - |
| 1787990000 | 20.56° C | 67% | 1009.6 hPa | 0 mm | 0.89 m/s, 240° | 343 W/m² | - |
| 1787989940 | 20.56° C | 66% | 1009.4 hPa | 0 mm | 2.24 m/s, 315° | 339 W/m² | - |
| 1787989883 | 21.11° C | 65% | 1009.5 hPa | 0 mm | 1.34 m/s, 250° | 338 W/m² | - |
| 1787989820 | 21.11° C | 65% | 1009.6 hPa | 0 mm | 1.79 m/s, 224° | 161 W/m² | - |
| 1787989760 | 21.11° C | 65% | 1009.5 hPa | 0 mm | 1.34 m/s, 185° | 334 W/m² | - |
| 1787989701 | 21.11° C | 64% | 1009.4 hPa | 0 mm | 2.68 m/s, 245° | 294 W/m² | - |
| 1787989640 | 21.11° C | 65% | 1009.5 hPa | 0 mm | 0.89 m/s, 131° | 275 W/m² | - |
| 1787989580 | 21.11° C | 65% | 1009.5 hPa | 0 mm | 1.79 m/s, 29° | 317 W/m² | - |
| 1787989521 | 21.11° C | 66% | 1009.5 hPa | 0 mm | 0.45 m/s, 230° | 322 W/m² | - |
| 1787989460 | 20.56° C | 67% | 1009.5 hPa | 0 mm | 0.45 m/s, 4° | 312 W/m² | - |
| 1787989400 | 20.56° C | 67% | 1009.4 hPa | 0 mm | 0.45 m/s, 77° | 311 W/m² | - |
| 1787989340 | 21.11° C | 66% | 1009.6 hPa | 0 mm | 0.45 m/s, 331° | 297 W/m² | - |
* Rain latest hour (hover to see other rain measurements)
** Current wind speed in m/s (hover to see current wind gust speed)